WA8SIE Weather Reports


time (UTC)temp
C
wind
direction
speed
KPH
gust
KPH
rain 1hr
cm
rain 24hr
cm
rain mn
cm
humidity
%
barometer
mb
20260503210011 16 197 0.0 0.0 0.00 0.00 0.00 29 1010.1
20260503205511 16 214 4.8 0.0 0.00 0.00 0.00 28 1010.4
20260503205011 16 298 4.8 0.0 0.00 0.00 0.00 29 1010.4
20260503204511 16 299 3.2 0.0 0.00 0.00 0.00 29 1010.4
20260503204011 16 228 6.4 0.0 0.00 0.00 0.00 29 1010.6
20260503203011 16 212 0.0 0.0 0.00 0.00 0.00 29 1010.6
20260503202512 16 108 0.0 0.0 0.00 0.00 0.00 29 1010.9
20260503202011 17 261 1.6 0.0 0.00 0.00 0.00 31 1010.9
20260503201513 16 279 0.0 0.0 0.00 0.00 0.00 30 1010.9
20260503201011 16 330 6.4 0.0 0.00 0.00 0.00 31 1011.0
20260503200511 16 281 0.0 0.0 0.00 0.00 0.00 29 1011.0
20260503200013 16 6 0.0 0.0 0.00 0.00 0.00 30 1011.0
20260503195511 16 291 4.8 0.0 0.00 0.00 0.00 34 1011.5
20260503195012 16 314 0.0 0.0 0.00 0.00 0.00 32 1011.5
20260503194511 16 288 0.0 0.0 0.00 0.00 0.00 30 1011.5
20260503194011 16 288 3.2 0.0 0.00 0.00 0.00 30 1011.6
20260503193511 16 307 0.0 0.0 0.00 0.00 0.00 32 1011.6
20260503193011 16 328 3.2 0.0 0.00 0.00 0.00 31 1011.6
20260503192511 16 352 0.0 0.0 0.00 0.00 0.00 30 1012.1
20260503192011 16 308 0.0 0.0 0.00 0.00 0.00 30 1012.1
20260503191511 16 187 0.0 0.0 0.00 0.00 0.00 30 1012.1
20260503191011 16 342 9.7 0.0 0.00 0.00 0.00 30 1012.2
20260503190511 16 97 0.0 0.0 0.00 0.00 0.00 31 1012.2
20260503190012 16 290 0.0 0.0 0.00 0.00 0.00 34 1012.2
20260503185511 15 306 0.0 0.0 0.00 0.00 0.00 35 1012.7
20260503185010 16 336 9.7 0.0 0.00 0.00 0.00 32 1012.7
20260503184511 16 3.2 0.0 0.00 0.00 0.00 30 1012.7
20260503184012 15 204 0.0 0.0 0.00 0.00 0.00 35 1012.8
20260503183511 15 200 0.0 0.0 0.00 0.00 0.00 34 1012.8
20260503183011 15 337 3.2 0.0 0.00 0.00 0.00 31 1012.8
20260503182511 15 309 0.0 0.0 0.00 0.00 0.00 32 1013.0
20260503182011 15 256 4.8 0.0 0.00 0.00 0.00 34 1013.0
20260503181511 15 314 0.0 0.0 0.00 0.00 0.00 36 1013.0
20260503181011 15 259 0.0 0.0 0.00 0.00 0.00 35 1013.1
20260503180512 15 331 8.0 0.0 0.00 0.00 0.00 34 1013.1
20260503180011 15 323 3.2 0.0 0.00 0.00 0.00 38 1013.1
20260503175511 15 359 8.0 0.0 0.00 0.00 0.00 34 1013.4
20260503175011 15 241 0.0 0.0 0.00 0.00 0.00 36 1013.4
20260503174011 14 304 6.4 0.0 0.00 0.00 0.00 34 1013.4
20260503173511 14 280 0.0 0.0 0.00 0.00 0.00 37 1013.4
20260503172510 13 319 0.0 0.0 0.00 0.00 0.00 38 1013.7
20260503171511 14 36 3.2 0.0 0.00 0.00 0.00 33 1013.7
20260503170511 14 319 1.6 0.0 0.00 0.00 0.00 34 1014.0
20260503151010 11 328 0.0 0.0 0.00 0.00 0.00 43 1015.2
20260503150510 11 316 6.4 0.0 0.00 0.00 0.00 42 1015.2
20260503131011 7 214 0.0 0.0 0.00 0.00 0.00 68 1015.4
20260503130511 6 214 0.0 0.0 0.00 0.00 0.00 70 1015.4
20260503110511 8 319 0.0 0.0 0.00 0.00 0.00 50 1011.6
20260503090510 8 319 0.0 0.0 0.00 0.00 0.00 50 1011.6
20260503081510 8 319 0.0 0.0 0.00 0.00 0.00 50 1011.6
20260503081011 8 319 0.0 0.0 0.00 0.00 0.00 50 1011.6
20260503072010 8 319 0.0 0.0 0.00 0.00 0.00 50 1011.6
20260503071510 8 319 0.0 0.0 0.00 0.00 0.00 50 1011.6
20260503071010 8 319 0.0 0.0 0.00 0.00 0.00 50 1011.6
20260503070511 8 319 0.0 0.0 0.00 0.00 0.00 50 1011.6
20260503055011 8 319 0.0 0.0 0.00 0.00 0.00 50 1011.6
20260503054511 8 319 0.0 0.0 0.00 0.00 0.00 50 1011.6
20260503054011 8 319 0.0 0.0 0.00 0.00 0.00 50 1011.6
20260503053511 8 319 0.0 0.0 0.00 0.00 0.00 50 1011.6
20260503053011 8 319 0.0 0.0 0.00 0.00 0.00 50 1011.6
20260503052511 8 319 0.0 0.0 0.00 0.00 0.00 50 1011.6
20260503052011 8 319 0.0 0.0 0.00 0.00 0.00 50 1011.6
20260503051513 8 319 0.0 0.0 0.00 0.00 0.00 50 1011.6
20260503050511 8 319 0.0 0.0 0.00 0.00 0.00 50 1011.6
20260503050011 8 319 0.0 0.0 0.00 0.00 0.00 50 1011.6
20260503045511 8 319 0.0 0.0 0.00 0.00 0.00 50 1011.6
20260503045011 8 319 0.0 0.0 0.00 0.00 0.00 50 1011.6
20260503044511 8 319 0.0 0.0 0.00 0.00 0.00 50 1011.6
20260503044011 8 319 0.0 0.0 0.00 0.00 0.00 50 1011.6
20260503043511 8 319 0.0 0.0 0.00 0.00 0.00 50 1011.6
20260503043013 8 319 0.0 0.0 0.00 0.00 0.00 50 1011.6
20260503042511 8 319 0.0 0.0 0.00 0.00 0.00 50 1011.6
20260503042011 8 319 0.0 0.0 0.00 0.00 0.00 50 1011.6
20260503041511 8 319 0.0 0.0 0.00 0.00 0.00 50 1011.6
20260503041011 8 319 0.0 0.0 0.00 0.00 0.00 50 1011.6
20260503040511 8 319 0.0 0.0 0.00 0.00 0.00 50 1011.6
20260503034511 8 319 0.0 0.0 0.00 0.00 0.00 50 1011.6
20260503034011 8 319 0.0 0.0 0.00 0.00 0.00 50 1011.6
20260503033511 8 319 0.0 0.0 0.00 0.00 0.00 50 1011.6
20260503033011 8 319 0.0 0.0 0.00 0.00 0.00 50 1011.6
20260503032011 8 319 0.0 0.0 0.00 0.00 0.00 50 1011.6
20260503031513 8 319 0.0 0.0 0.00 0.00 0.00 50 1011.6
20260503031011 8 319 0.0 0.0 0.00 0.00 0.00 50 1011.6
20260503030511 8 319 0.0 0.0 0.00 0.00 0.00 50 1011.6
20260503025011 8 319 0.0 0.0 0.00 0.00 0.00 50 1011.6
20260503024511 8 319 0.0 0.0 0.00 0.00 0.00 50 1011.6
20260503024011 8 319 0.0 0.0 0.00 0.00 0.00 50 1011.6
20260503023512 8 319 0.0 0.0 0.00 0.00 0.00 50 1011.6
20260503023011 8 319 0.0 0.0 0.00 0.00 0.00 50 1011.6
20260503022511 8 319 0.0 0.0 0.00 0.00 0.00 50 1011.6
20260503022011 8 319 0.0 0.0 0.00 0.00 0.00 50 1011.6
20260503021511 8 319 0.0 0.0 0.00 0.00 0.00 50 1011.6
20260503021027 8 319 0.0 0.0 0.00 0.00 0.00 50 1011.6
20260503020511 8 319 0.0 0.0 0.00 0.00 0.00 48 1011.6
20260503015511 9 290 0.0 0.0 0.00 0.00 0.00 48 1011.4